Location: Clinton NY
(43.0598°N, 75.3602°W)
Time: 20:48:13
(UTC-04:00)

Daily predictions for brighter satellites

Satellite Brightness Start Highest point End
(mag) Time Altitude Azimuth Time Altitude Azimuth Time Altitude Azimuth
APEX 3.5 18:33:02 10° S 18:35:48 29° ESE 18:38:18 10° NE
ERS-2 2.1 18:34:37 10° SSE 18:38:18 74° ENE 18:42:00 10° N
SL-24 R/B - RUBIN 2 4.1 18:34:19 10° NW 18:39:09 68° WSW 18:43:32 10° SSE
YAOGAN 1 2.6 18:36:16 10° SSE 18:40:32 63° ENE 18:44:49 10° N
Cosmos 1420 Rocket 4.1 18:35:45 10° NNW 18:41:03 63° ENE 18:46:16 10° SSE
EO 1 Delta rocket 4.5 18:34:35 10° SSE 18:41:20 85° E 18:46:40 10° N
Cosmos 2322 3.8 18:39:00 10° NNW 18:44:46 90° WSW 18:50:28 10° SSE
Cosmos 1726 3.4 18:42:25 10° SE 18:45:14 21° E 18:48:03 10° NE
GRACE-2 4.3 18:43:00 10° SSE 18:45:20 32° E 18:47:42 10° NNE
CZ-4 R/B 1.6 18:41:19 10° S 18:45:31 80° W 18:49:40 10° NNW
EO 1 Del DPAF 3.4 18:43:53 10° NNE 18:47:40 51° E 18:51:24 10° S
CZ-2C R/B 3.7 18:44:06 10° NNE 18:48:38 87° W 18:53:04 10° SSW
GRACE-1 4.0 18:48:30 10° SSE 18:50:58 42° E 18:53:27 10° NNE
Cosmos 2219 Rocket 2.7 18:45:58 10° N 18:51:11 38° ENE 18:56:22 10° SE
Landsat 4 3.9 18:47:48 10° N 18:51:32 76° WNW 18:55:14 10° SSW
Cosmos 1821 Rocket 4.4 18:47:24 10° SSE 18:53:01 39° E 18:58:45 10° NNE
METEOR-M 4.1 18:51:38 10° SSE 18:56:56 69° ENE 19:02:15 10° N
CZ-4 R/B 4.4 18:52:55 10° SSE 18:57:03 86° ENE 19:01:14 10° NNW
BREEZE-M DEB (TANK) 1.8 18:55:05 10° WSW 18:57:25 59° NNW 18:58:56 15° NE
Cosmos 2221 2.5 18:57:11 10° S 19:01:25 60° E 19:05:43 10° NNE
Cosmos 2084 4.0 18:58:05 10° NNW 19:01:32 32° NE 19:04:15 15° ESE
Meteor 1-28 Rocket 3.7 18:57:52 10° N 19:01:38 64° WNW 19:05:20 10° SSW
Meteor 2-1 Rocket 4.4 18:56:24 10° S 19:02:14 84° W 19:08:11 10° N
Thor Agena Rocket 4.4 18:58:20 10° NE 19:02:34 26° E 19:06:45 10° SSE
ALOS 2.6 18:58:14 10° SE 19:02:39 44° ENE 19:07:06 10° N
Cosmos 1315 Rocket 3.0 19:00:12 10° NNW 19:04:18 82° W 19:08:25 10° S
Cosmos 921 Rocket 3.5 19:00:53 10° NNW 19:05:17 64° WSW 19:09:35 10° S
SKYMED 2 3.5 19:02:11 10° NNE 19:06:32 71° ESE 19:10:51 10° S
Cosmos 1727 Rocket 4.5 19:01:06 10° NNW 19:07:24 67° W 19:13:38 10° S
GP-B 3.8 19:05:22 10° N 19:09:44 59° W 19:14:06 10° SSW
Cosmos 2333 4.3 19:14:57 10° NNW 19:20:43 87° WSW 19:26:30 10° SSE
Cosmos 2123 Rocket 4.2 19:16:43 10° N 19:22:43 46° ENE 19:28:42 10° SSE
BREEZE-M R/B 3.6 19:20:57 10° S 19:23:09 23° SE 19:23:15 23° SE
Cosmos 1908 4.0 19:20:47 10° SSW 19:24:37 55° W 19:28:28 10° N
SJ-6B 3.7 19:25:54 26° ENE 19:25:54 26° ENE 19:28:57 10° NNE
Lacrosse 5 rocket 3.8 19:25:06 10° NNW 19:26:58 12° N 19:28:49 10° NNE
Cosmos 1605 Rocket 4.4 19:22:04 10° SSE 19:27:32 36° E 19:33:01 10° NNE
Cosmos 2237 Rocket 2.6 19:23:05 10° NNW 19:28:28 41° ENE 19:31:45 21° ESE
DMSP B5D1-3 4.4 19:25:19 10° NNE 19:30:29 75° ESE 19:35:37 10° S
Cosmos 1269 Rocket 4.0 19:25:29 10° SSW 19:30:45 88° WNW 19:36:05 10° NNE
Cosmos 44 3.5 19:26:36 10° SW 19:30:53 59° NW 19:35:11 10° NNE
H-2A R/B 3.1 19:32:05 21° SE 19:34:17 44° ENE 19:38:03 10° N
Aureole 2 Rocket 2.7 19:30:23 10° NNW 19:34:21 86° WSW 19:38:25 10° SSE
SL-8 R/B 4.3 19:31:36 10° W 19:36:16 48° N 19:38:45 25° NE
Cosmos 2227 Rocket 2.7 19:31:24 10° S 19:36:30 36° ESE 19:39:16 23° ENE
NOSS 0 Rocket 3.8 19:33:05 10° NNW 19:39:15 68° ENE 19:44:52 12° SE
SL-16 R/B 3.3 19:36:25 10° N 19:40:59 24° NE 19:41:20 24° ENE
Gbstr 26 Del rocket 3.9 19:37:37 10° WNW 19:42:37 68° SW 19:47:06 19° SE
SPOT 3 Rocket 4.3 19:37:41 10° S 19:42:46 55° W 19:47:54 10° NNW
Iridium 4 Rocket 4.0 19:37:27 10° S 19:43:06 75° W 19:49:02 10° N
Abrixas rocket 2.9 19:40:14 10° WNW 19:43:21 39° NNE 19:43:32 38° NNE
Cosmos 1300 2.5 19:44:50 10° S 19:48:39 85° E 19:52:30 10° N
Cosmos 494 Rocket 3.9 19:44:17 10° S 19:49:15 55° ESE 19:52:56 18° NNE
BREEZE M DEB (TANK) 4.5 19:29:38 10° WNW 19:49:43 70° NNE 19:52:21 34° E
Sich 1 3.0 19:45:40 10° N 19:50:04 90° NNW 19:54:29 10° S
ATLAS 5 CENTAUR R/B 4.4 19:51:26 10° N 19:52:45 11° NNE 19:54:05 10° NNE
Cosmos 1980 3.6 19:47:22 10° NNW 19:53:01 67° ENE 19:55:59 28° SE
COSMO-SKYMED 1 4.2 19:50:31 10° N 19:54:28 35° WNW 19:58:24 10° SW
Resurs 01 Rocket 3.2 19:57:31 21° NNE 19:57:31 21° NNE 19:59:20 10° N
Cosmos 1110 Rocket 3.9 19:51:56 10° NNW 19:57:17 87° ENE 20:01:18 18° SSE
CZ-4C R/B 2.6 19:52:10 10° SW 19:57:22 61° NW 20:02:55 12° NNE
Cosmos 2098 Rocket 4.3 19:53:54 10° SSW 19:58:37 56° WNW 20:04:37 10° N
Meteor 2-3 Rocket 4.0 19:54:24 10° N 19:59:56 45° ENE 20:00:30 43° E
FREGAT/IRIS 3.8 20:00:58 37° NNW 20:00:58 37° NNW 20:02:57 10° NNW
FENGYUN 3A 4.3 19:56:07 10° S 20:01:23 55° W 20:06:44 10° NNW
COSMOS 2428 4.1 19:57:24 10° NW 20:02:36 38° WSW 20:07:47 10° S
USA 32 4.0 19:58:48 10° N 20:03:57 55° E 20:04:45 50° ESE
Cosmos 2333 Rocket 2.5 19:59:57 10° NNW 20:05:40 70° WSW 20:11:07 11° SSE
Cosmos 2219 4.1 20:01:49 10° SW 20:07:23 50° WNW 20:12:58 10° NNE
Meteor 2-10 4.2 20:05:42 10° SSW 20:10:42 69° WNW 20:15:52 10° N
Cosmos 2297 Rocket 2.1 20:08:04 10° S 20:13:37 60° ESE 20:14:04 58° E
Cosmos 1666 Rocket 4.4 20:11:21 10° NNW 20:15:32 48° W 20:19:41 10° SSW
Cosmos 1633 Rocket 3.8 20:15:54 10° NNW 20:20:14 53° W 20:24:31 10° S
Cosmos 1726 4.5 20:17:22 10° SW 20:20:23 24° WNW 20:23:26 10° NNW
Cosmos 1328 Rocket 3.7 20:16:00 10° S 20:25:10 - N 20:19:44 63° SSW
Envisat 3.8 20:24:49 37° NNE 20:24:49 37° NNE 20:28:05 10° N
Cosmos 2082 3.5 20:18:23 10° SSW 20:24:03 72° ESE 20:24:20 70° E
Cosmos 2251 Rocket 3.4 20:19:31 10° SSW 20:24:49 84° ESE 20:25:27 70° NE
Cosmos 2219 Rocket 3.7 20:30:05 10° NW 20:35:02 33° WSW 20:39:58 10° SSW
USA 267 3.9 20:48:33 41° S 20:48:33 41° S 20:53:00 10° SSW
BREEZE-M DEB (TANK) 3.8 20:53:14 10° WNW 21:04:20 57° WSW 21:04:20 57° WSW
Lacrosse 5 rocket 4.3 21:04:32 10° NNW 21:04:48 11° NNW 21:04:48 11° NNW
Cosmos 2237 Rocket 3.7 21:07:25 10° NW 21:12:22 31° WSW 21:13:39 28° SW
Cosmos 2227 Rocket 3.6 21:15:22 10° WSW 21:20:32 35° NW 21:21:12 34° NW
USA 234 4.1 21:23:45 40° N 21:23:45 40° N 21:28:24 10° NW
SL-16 R/B 3.6 21:19:56 10° NNW 21:23:15 35° NW 21:23:15 35° NW
Cosmos 2297 Rocket 4.5 21:53:38 10° WSW 21:56:00 19° W 21:56:00 19° W
